When you browse on this site, cookies collect data to enhance your experience and personalize the content and advertising you see.
Visit our Privacy Policy to learn more. By continuing to use the site, you agree to this use of cookies and data.
  • In Lithuania
  • List of Countries
  • For 7 days
  • Water Temperature
  • Satellite Maps
  • Weather Map
  • Weather Widgets
  • user-avatar
    Login

    Hourly Weather Kamloops

    Today, 16 July, Tuesday

    Time Temperature Precipitation Wind Pressure Humidity
    00:00 +15°C° 0 mm 1 mps 705 mmHg 79%
    01:00 +15°C° 0 mm 1 mps 705 mmHg 80%
    02:00 +14°C° 0 mm 1 mps 705 mmHg 83%
    03:00 +14°C° 0 mm 1 mps 705 mmHg 86%
    04:00 +13°C° 0 mm 1 mps 705 mmHg 89%
    05:00 +15°C° 0 mm 1 mps 705 mmHg 83%
    06:00 +16°C° 0 mm 1 mps 705 mmHg 77%
    07:00 +17°C° 0 mm 0 mps 705 mmHg 71%
    08:00 +21°C° 0.1 mm 1 mps 705 mmHg 64%
    09:00 +23°C° 0.1 mm 1 mps 705 mmHg 58%
    10:00 +25°C° 0.1 mm 1 mps 705 mmHg 51%
    11:00 +26°C° 0.1 mm 1 mps 704 mmHg 47%
    12:00 +27°C° 0.1 mm 1 mps 704 mmHg 42%
    13:00 +27°C° 0.1 mm 2 mps 704 mmHg 37%
    14:00 +27°C° 0 mm 2 mps 703 mmHg 37%
    15:00 +28°C° 0 mm 1 mps 703 mmHg 36%
    16:00 +28°C° 0 mm 1 mps 702 mmHg 36%
    17:00 +26°C° 0 mm 1 mps 702 mmHg 42%
    18:00 +24°C° 0 mm 1 mps 702 mmHg 48%
    19:00 +23°C° 0 mm 2 mps 702 mmHg 54%
    20:00 +20°C° 0 mm 2 mps 701 mmHg 60%
    21:00 +18°C° 0 mm 2 mps 701 mmHg 66%
    22:00 +16°C° 0 mm 2 mps 700 mmHg 71%
    23:00 +16°C° 0 mm 2 mps 700 mmHg 72%

    Tomorrow, 17 July, Wednesday

    Time Temperature Precipitation Wind Pressure Humidity
    00:00 +15°C° 0 mm 2 mps 700 mmHg 73%
    01:00 +15°C° 0 mm 2 mps 700 mmHg 74%
    02:00 +15°C° 0 mm 2 mps 699 mmHg 74%
    03:00 +15°C° 0 mm 2 mps 699 mmHg 74%
    04:00 +15°C° 0 mm 2 mps 699 mmHg 74%
    05:00 +15°C° 0.1 mm 2 mps 699 mmHg 76%
    06:00 +15°C° 0.1 mm 2 mps 699 mmHg 78%
    07:00 +15°C° 0.1 mm 2 mps 699 mmHg 80%
    08:00 +16°C° 0.4 mm 2 mps 699 mmHg 76%
    09:00 +17°C° 0.4 mm 2 mps 699 mmHg 73%
    10:00 +18°C° 0.4 mm 2 mps 699 mmHg 70%
    11:00 +20°C° 0.1 mm 3 mps 699 mmHg 63%
    12:00 +21°C° 0.1 mm 3 mps 699 mmHg 56%
    13:00 +22°C° 0.1 mm 3 mps 699 mmHg 49%
    14:00 +22°C° 0.1 mm 4 mps 698 mmHg 47%
    15:00 +22°C° 0.1 mm 5 mps 698 mmHg 46%
    16:00 +22°C° 0.1 mm 6 mps 698 mmHg 44%
    17:00 +21°C° 0 mm 5 mps 697 mmHg 49%
    18:00 +20°C° 0 mm 5 mps 697 mmHg 53%
    19:00 +18°C° 0 mm 4 mps 697 mmHg 58%
    20:00 +16°C° 0.2 mm 3 mps 697 mmHg 66%
    21:00 +14°C° 0.2 mm 3 mps 697 mmHg 74%
    22:00 +13°C° 0.2 mm 2 mps 697 mmHg 83%
    23:00 +13°C° 0.4 mm 2 mps 697 mmHg 86%

    Day after tomorrow, 18 July, Thursday

    Time Temperature Precipitation Wind Pressure Humidity
    00:00 +13°C° 0.4 mm 1 mps 698 mmHg 89%
    01:00 +12°C° 0.4 mm 1 mps 698 mmHg 92%
    02:00 +12°C° 0.5 mm 1 mps 698 mmHg 92%
    03:00 +11°C° 0.5 mm 1 mps 699 mmHg 93%
    04:00 +11°C° 0.5 mm 1 mps 699 mmHg 93%
    05:00 +12°C° 0.4 mm 1 mps 700 mmHg 90%
    06:00 +13°C° 0.4 mm 1 mps 700 mmHg 87%
    07:00 +14°C° 0.4 mm 1 mps 700 mmHg 83%
    08:00 +15°C° 0.8 mm 1 mps 701 mmHg 79%
    09:00 +16°C° 0.8 mm 1 mps 701 mmHg 74%
    10:00 +18°C° 0.8 mm 1 mps 701 mmHg 69%
    11:00 +18°C° 0.9 mm 1 mps 701 mmHg 66%
    12:00 +19°C° 0.9 mm 1 mps 701 mmHg 64%
    13:00 +20°C° 0.9 mm 1 mps 701 mmHg 61%
    14:00 +19°C° 0.7 mm 2 mps 701 mmHg 60%
    15:00 +19°C° 0.7 mm 2 mps 701 mmHg 60%
    16:00 +19°C° 0.7 mm 2 mps 700 mmHg 59%
    17:00 +18°C° 0.4 mm 2 mps 700 mmHg 64%
    18:00 +18°C° 0.4 mm 1 mps 701 mmHg 69%
    19:00 +16°C° 0.4 mm 1 mps 701 mmHg 74%
    20:00 +14°C° 0.2 mm 1 mps 701 mmHg 77%
    21:00 +13°C° 0.2 mm 1 mps 701 mmHg 80%
    22:00 +12°C° 0.2 mm 1 mps 702 mmHg 83%
    23:00 +11°C° 0 mm 1 mps 702 mmHg 84%

    19 July, Friday

    Time Temperature Precipitation Wind Pressure Humidity
    00:00 +11°C° 0 mm 1 mps 702 mmHg 86%
    01:00 +11°C° 0 mm 1 mps 702 mmHg 87%
    02:00 +11°C° 0 mm 1 mps 703 mmHg 88%
    03:00 +10°C° 0 mm 1 mps 703 mmHg 89%
    04:00 +10°C° 0 mm 1 mps 703 mmHg 90%
    05:00 +10°C° 0.2 mm 1 mps 703 mmHg 90%
    06:00 +11°C° 0.2 mm 1 mps 703 mmHg 91%
    07:00 +11°C° 0.2 mm 1 mps 704 mmHg 91%
    08:00 +12°C° 0.7 mm 1 mps 704 mmHg 92%
    09:00 +12°C° 0.7 mm 1 mps 704 mmHg 92%
    10:00 +12°C° 0.7 mm 1 mps 704 mmHg 93%
    11:00 +12°C° 1.1 mm 1 mps 704 mmHg 93%
    12:00 +12°C° 1.1 mm 1 mps 704 mmHg 93%
    13:00 +12°C° 1.1 mm 1 mps 705 mmHg 93%
    14:00 +11°C° 0.4 mm 1 mps 705 mmHg 93%
    15:00 +11°C° 0.4 mm 1 mps 705 mmHg 93%
    16:00 +11°C° 0.4 mm 1 mps 705 mmHg 93%
    17:00 +12°C° 0 mm 1 mps 705 mmHg 93%
    18:00 +11°C° 0 mm 0 mps 706 mmHg 92%
    19:00 +11°C° 0 mm 0 mps 706 mmHg 92%
    20:00 +10°C° 0 mm 0 mps 706 mmHg 93%
    21:00 +9°C° 0 mm 0 mps 706 mmHg 93%
    22:00 +9°C° 0 mm 0 mps 707 mmHg 94%
    23:00 +8°C° 0 mm 0 mps 707 mmHg 94%

    20 July, Saturday

    Time Temperature Precipitation Wind Pressure Humidity
    00:00 +8°C° 0 mm 0 mps 707 mmHg 95%
    01:00 +8°C° 0 mm 0 mps 707 mmHg 95%
    02:00 +7°C° 0 mm 0 mps 707 mmHg 95%
    03:00 +7°C° 0 mm 0 mps 707 mmHg 95%
    04:00 +7°C° 0 mm 0 mps 708 mmHg 95%
    05:00 +9°C° 0 mm 0 mps 708 mmHg 92%
    06:00 +11°C° 0 mm 0 mps 708 mmHg 88%
    07:00 +12°C° 0 mm 0 mps 708 mmHg 85%
    08:00 +14°C° 0 mm 0 mps 708 mmHg 76%
    09:00 +18°C° 0 mm 1 mps 708 mmHg 67%
    10:00 +20°C° 0 mm 1 mps 709 mmHg 58%
    11:00 +22°C° 0 mm 1 mps 708 mmHg 54%
    12:00 +23°C° 0 mm 1 mps 708 mmHg 49%
    13:00 +24°C° 0 mm 1 mps 708 mmHg 45%
    14:00 +24°C° 0 mm 1 mps 708 mmHg 44%
    15:00 +25°C° 0 mm 1 mps 708 mmHg 43%
    16:00 +25°C° 0 mm 1 mps 707 mmHg 42%
    17:00 +24°C° 0 mm 1 mps 707 mmHg 48%
    18:00 +22°C° 0 mm 1 mps 707 mmHg 54%
    19:00 +21°C° 0 mm 1 mps 707 mmHg 60%
    20:00 +19°C° 0 mm 1 mps 707 mmHg 65%
    21:00 +16°C° 0 mm 1 mps 707 mmHg 70%
    22:00 +15°C° 0 mm 1 mps 707 mmHg 74%
    23:00 +14°C° 0 mm 1 mps 707 mmHg 75%

    21 July, Sunday

    Time Temperature Precipitation Wind Pressure Humidity
    00:00 +14°C° 0 mm 1 mps 706 mmHg 77%
    01:00 +13°C° 0 mm 1 mps 706 mmHg 78%
    02:00 +13°C° 0 mm 1 mps 706 mmHg 80%
    03:00 +12°C° 0 mm 1 mps 706 mmHg 82%
    04:00 +12°C° 0 mm 1 mps 706 mmHg 84%
    05:00 +13°C° 0 mm 0 mps 706 mmHg 77%
    06:00 +15°C° 0 mm 0 mps 706 mmHg 70%
    07:00 +17°C° 0 mm 0 mps 706 mmHg 63%
    08:00 +19°C° 0 mm 0 mps 706 mmHg 56%
    09:00 +22°C° 0 mm 0 mps 706 mmHg 49%
    10:00 +26°C° 0 mm 1 mps 707 mmHg 43%
    11:00 +27°C° 0 mm 1 mps 706 mmHg 39%
    12:00 +29°C° 0 mm 1 mps 706 mmHg 34%
    13:00 +30°C° 0 mm 1 mps 706 mmHg 30%
    14:00 +30°C° 0 mm 2 mps 706 mmHg 29%
    15:00 +30°C° 0 mm 2 mps 706 mmHg 27%
    16:00 +30°C° 0 mm 2 mps 705 mmHg 26%
    17:00 +28°C° 0 mm 2 mps 705 mmHg 33%
    18:00 +26°C° 0 mm 1 mps 705 mmHg 40%
    19:00 +24°C° 0 mm 1 mps 705 mmHg 47%
    20:00 +22°C° 0 mm 1 mps 705 mmHg 49%
    21:00 +21°C° 0 mm 1 mps 705 mmHg 51%
    22:00 +19°C° 0 mm 1 mps 705 mmHg 53%
    23:00 +18°C° 0 mm 1 mps 705 mmHg 55%
    Show more